�N����,����,�~����,�C��,���x,�C��,����,���ϕ���,�ő�u�ԕ���,�ő厞����,���˗�,�I�_���x,�n�����x,�ő啗���N��,DTYPE
"18/07/16","00:10",0.0,27.5,82.6,1005.7,283.1,0.7,1.4,304.4,0.00,24.3,27.4,"00:02:56",1
"18/07/16","00:20",0.0,27.3,82.8,1005.5,287.1,0.6,1.4,321.5,0.00,24.2,27.4,"00:14:32",1
"18/07/16","00:30",0.0,27.1,83.6,1006.0,288.9,0.7,1.9,306.3,0.00,24.1,27.4,"00:20:16",1
"18/07/16","00:40",0.0,26.9,84.1,1005.5,293.5,0.7,1.7,320.1,0.00,24.0,27.2,"00:37:12",1
"18/07/16","00:50",0.0,26.7,85.0,1005.7,295.0,0.6,1.6,340.4,0.00,24.0,27.3,"00:49:44",1
"18/07/16","01:00",0.0,26.7,85.2,1005.5,322.9,0.7,1.4,337.1,0.00,24.0,27.1,"00:51:28",1
"18/07/16","01:10",0.0,26.7,85.1,1005.7,318.4,1.0,2.1,340.4,0.00,24.0,26.9,"01:04:32",1
"18/07/16","01:20",0.0,26.6,85.1,1005.7,290.4,0.5,1.0,261.4,0.00,23.9,26.9,"01:15:04",1
"18/07/16","01:30",0.0,26.5,85.5,1005.5,292.7,0.6,1.1,341.6,0.00,23.9,26.9,"01:28:16",1
"18/07/16","01:40",0.0,26.4,86.1,1005.7,301.4,0.7,2.0,336.8,0.00,23.9,27.0,"01:32:48",1
"18/07/16","01:50",0.0,26.2,86.0,1005.5,302.5,0.8,1.8,321.4,0.00,23.7,26.6,"01:40:56",1
"18/07/16","02:00",0.0,26.1,86.7,1005.5,291.2,0.6,1.0,299.0,0.00,23.7,26.8,"01:50:24",1
"18/07/16","02:10",0.0,25.9,87.0,1005.7,283.3,0.5,1.1,296.6,0.00,23.6,26.7,"02:05:12",1
"18/07/16","02:20",0.0,25.9,87.4,1005.5,279.7,0.5,0.9,288.2,0.00,23.7,26.6,"02:11:12",1
"18/07/16","02:30",0.0,25.8,87.7,1005.5,280.8,0.5,1.0,265.5,0.00,23.6,26.7,"02:29:36",1
"18/07/16","02:40",0.0,25.6,87.9,1005.5,284.5,0.7,1.2,314.9,0.00,23.5,26.7,"02:34:16",1
"18/07/16","02:50",0.0,25.6,88.2,1005.5,282.0,0.6,1.6,318.5,0.00,23.5,26.5,"02:49:28",1
"18/07/16","03:00",0.0,25.7,87.9,1005.5,309.2,0.8,1.3,336.2,0.00,23.6,26.4,"02:54:48",1
"18/07/16","03:10",0.0,25.6,87.9,1005.7,304.2,0.7,1.3,313.9,0.00,23.5,26.6,"03:06:40",1
"18/07/16","03:20",0.0,25.5,88.3,1005.7,291.4,0.6,1.1,302.5,0.00,23.5,26.3,"03:16:40",1
"18/07/16","03:30",0.0,25.5,88.2,1005.5,289.1,0.7,1.2,321.1,0.00,23.4,26.3,"03:27:04",1
"18/07/16","03:40",0.0,25.5,88.3,1005.7,280.3,0.7,1.1,296.7,0.00,23.5,26.4,"03:30:16",1
"18/07/16","03:50",0.0,25.4,88.1,1005.7,301.9,0.7,1.2,322.1,0.00,23.3,26.2,"03:41:52",1
"18/07/16","04:00",0.0,25.2,88.5,1006.0,300.8,0.6,1.1,334.3,0.00,23.2,26.3,"03:50:16",1
"18/07/16","04:10",0.0,25.1,89.0,1005.7,284.4,0.6,1.1,309.8,0.00,23.2,26.3,"04:00:48",1
"18/07/16","04:20",0.0,25.1,89.2,1005.7,307.1,0.8,1.6,319.3,0.00,23.2,26.2,"04:16:32",1
"18/07/16","04:30",0.0,25.0,89.1,1005.7,319.0,0.8,1.2,339.0,0.00,23.1,26.1,"04:24:24",1
"18/07/16","04:40",0.0,24.8,89.6,1006.2,298.8,0.7,1.2,303.7,0.00,23.0,26.2,"04:36:16",1
"18/07/16","04:50",0.0,24.8,89.6,1006.0,297.3,0.8,1.4,293.4,0.00,23.0,26.1,"04:48:16",1
"18/07/16","05:00",0.0,24.8,90.0,1006.4,287.9,0.6,0.9,286.2,0.00,23.1,26.1,"04:55:28",1
"18/07/16","05:10",0.0,24.8,89.9,1006.7,295.4,0.7,1.2,276.1,0.00,23.1,26.0,"05:03:36",1
"18/07/16","05:20",0.0,24.8,89.6,1006.4,308.2,0.8,1.3,315.6,0.00,23.0,26.3,"05:16:56",1
"18/07/16","05:30",0.0,24.7,90.2,1006.4,304.4,0.6,1.0,316.0,0.00,23.0,25.9,"05:20:32",1
"18/07/16","05:40",0.0,24.8,90.2,1006.7,295.5,0.6,1.1,338.4,0.00,23.1,25.9,"05:35:36",1
"18/07/16","05:50",0.0,24.9,90.0,1006.7,320.2,0.7,1.4,336.1,0.00,23.2,25.9,"05:45:28",1
"18/07/16","06:00",0.0,24.8,90.4,1006.7,323.8,0.7,0.9,307.3,0.00,23.2,25.9,"05:50:24",1
"18/07/16","06:10",0.0,24.9,90.8,1006.7,315.7,0.7,1.0,327.5,0.00,23.3,25.8,"06:05:20",1
"18/07/16","06:20",0.0,25.1,90.8,1007.1,316.6,0.7,1.0,331.5,0.01,23.5,25.9,"06:14:32",1
"18/07/16","06:30",0.0,25.6,90.2,1007.1,338.3,0.7,1.2,333.6,0.02,23.9,25.8,"06:24:32",1
"18/07/16","06:40",0.0,26.0,89.2,1006.9,310.1,0.5,1.3,334.5,0.02,24.1,25.7,"06:31:12",1
"18/07/16","06:50",0.0,26.3,88.6,1007.1,314.2,0.6,1.4,347.7,0.04,24.3,25.9,"06:48:48",1
"18/07/16","07:00",0.0,27.0,86.6,1006.9,342.4,0.8,1.6,334.4,0.07,24.6,25.7,"06:50:24",1
"18/07/16","07:10",0.0,27.6,82.8,1006.9,25.8,0.5,1.2,20.6,0.08,24.5,26.0,"07:06:40",1
"18/07/16","07:20",0.0,28.0,80.0,1006.7,355.2,0.3,0.9,338.9,0.10,24.3,26.0,"07:18:56",1
"18/07/16","07:30",0.0,28.8,78.4,1006.4,6.3,0.5,1.1,351.2,0.14,24.7,26.0,"07:22:16",1
"18/07/16","07:40",0.0,29.0,76.7,1006.7,33.0,0.3,0.9,345.8,0.16,24.5,26.1,"07:31:12",1
"18/07/16","07:50",0.0,29.6,74.6,1007.1,36.4,0.5,1.1,50.8,0.19,24.6,26.0,"07:43:52",1
"18/07/16","08:00",0.0,29.6,72.3,1007.4,29.1,0.3,1.1,75.3,0.21,24.1,26.1,"07:50:08",1
"18/07/16","08:10",0.0,29.7,71.5,1007.8,148.9,0.6,1.2,110.8,0.22,24.0,26.4,"08:02:00",1
"18/07/16","08:20",0.0,30.1,69.0,1008.1,156.6,0.5,1.0,135.6,0.25,23.8,26.3,"08:15:12",1
"18/07/16","08:30",0.0,30.6,71.7,1008.3,186.1,0.6,1.4,209.2,0.27,24.9,26.4,"08:24:48",1
"18/07/16","08:40",0.0,30.8,67.9,1008.3,169.5,0.3,1.0,178.8,0.29,24.2,26.2,"08:35:52",1
"18/07/16","08:50",0.0,31.3,67.4,1008.8,84.5,0.5,1.3,39.0,0.31,24.6,26.5,"08:46:24",1
"18/07/16","09:00",0.0,31.3,65.7,1008.6,14.6,0.6,1.4,83.9,0.33,24.1,26.7,"08:58:08",1
"18/07/16","09:10",0.0,31.8,64.4,1008.8,127.9,0.5,1.6,116.7,0.35,24.3,26.8,"09:05:36",1
"18/07/16","09:20",0.0,32.1,65.4,1009.5,85.5,0.5,1.2,41.5,0.37,24.8,26.8,"09:16:32",1
"18/07/16","09:30",0.0,32.7,63.1,1009.0,49.7,0.5,1.3,56.2,0.39,24.8,26.8,"09:26:40",1
"18/07/16","09:40",0.0,32.4,63.2,1009.3,50.3,0.8,2.2,32.0,0.40,24.5,27.0,"09:34:24",1
"18/07/16","09:50",0.0,32.8,63.3,1009.0,76.2,0.6,2.2,345.8,0.41,24.9,27.0,"09:40:02",1
"18/07/16","10:00",0.0,33.0,64.0,1009.5,25.8,1.0,2.2,4.0,0.44,25.3,27.5,"09:56:00",1
"18/07/16","10:10",0.0,33.3,64.3,1009.0,30.6,0.7,1.8,14.0,0.45,25.7,27.4,"10:08:40",1
"18/07/16","10:20",0.0,33.5,63.1,1009.0,41.0,0.7,1.6,157.9,0.47,25.6,27.7,"10:15:28",1
"18/07/16","10:30",0.0,33.6,60.8,1009.0,167.2,1.2,2.6,220.9,0.48,25.0,27.7,"10:22:56",1
"18/07/16","10:40",0.0,34.4,65.2,1009.0,159.5,1.0,2.8,160.6,0.50,27.0,27.9,"10:33:52",1
"18/07/16","10:50",0.0,33.7,61.5,1009.3,160.3,1.5,3.7,150.2,0.51,25.3,28.2,"10:42:16",1
"18/07/16","11:00",0.0,34.5,62.9,1009.0,144.0,1.0,3.2,191.5,0.52,26.4,28.2,"10:59:52",1
"18/07/16","11:10",0.0,34.3,61.1,1009.0,146.9,1.2,3.2,148.7,0.54,25.8,28.3,"11:03:36",1
"18/07/16","11:20",0.0,34.6,62.3,1008.6,149.2,1.3,2.5,180.9,0.54,26.4,28.7,"11:10:32",1
"18/07/16","11:30",0.0,35.3,57.2,1008.8,151.0,1.3,4.3,221.0,0.54,25.6,28.8,"11:27:52",1
"18/07/16","11:40",0.0,35.8,58.7,1008.1,201.8,1.6,3.7,196.3,0.55,26.5,29.1,"11:33:04",1
"18/07/16","11:50",0.0,35.0,60.6,1008.1,193.3,1.7,3.6,181.1,0.43,26.3,29.4,"11:47:04",1
"18/07/16","12:00",0.0,35.0,58.9,1008.1,166.1,1.5,4.0,199.4,0.53,25.8,29.4,"11:52:24",1
"18/07/16","12:10",0.0,35.6,58.2,1008.1,144.9,1.6,4.3,127.6,0.56,26.2,29.7,"12:03:04",1
"18/07/16","12:20",0.0,35.6,54.7,1008.1,198.0,1.1,2.5,220.8,0.51,25.1,29.8,"12:12:00",1
"18/07/16","12:30",0.0,35.6,55.1,1007.8,203.7,1.1,2.7,215.5,0.51,25.2,29.9,"12:25:20",1
"18/07/16","12:40",0.0,36.6,55.0,1008.1,168.2,1.0,2.7,148.1,0.58,26.1,30.4,"12:33:52",1
"18/07/16","12:50",0.0,36.2,54.2,1007.8,185.8,1.1,2.7,226.2,0.58,25.5,30.4,"12:41:44",1
"18/07/16","13:00",0.0,35.8,56.9,1007.8,166.5,1.6,3.5,127.7,0.57,26.0,30.5,"12:59:20",1
"18/07/16","13:10",0.0,35.7,55.8,1007.8,116.7,1.1,2.9,157.1,0.44,25.5,30.5,"13:08:32",1
"18/07/16","13:20",0.0,36.5,52.4,1007.6,162.2,1.3,3.1,182.4,0.44,25.2,30.6,"13:19:20",1
"18/07/16","13:30",0.0,36.3,53.3,1007.4,125.8,0.8,2.9,165.4,0.37,25.3,30.6,"13:20:40",1
"18/07/16","13:40",0.0,36.9,53.1,1007.4,193.0,1.3,3.2,164.5,0.54,25.8,30.6,"13:38:32",1
"18/07/16","13:50",0.0,36.5,52.3,1007.1,180.7,1.8,4.2,210.1,0.52,25.2,30.6,"13:47:28",1
"18/07/16","14:00",0.0,36.5,52.4,1007.1,178.2,1.8,4.9,224.0,0.47,25.2,30.8,"13:50:40",1
"18/07/16","14:10",0.0,36.5,53.7,1007.4,185.2,1.2,3.4,211.3,0.41,25.6,30.7,"14:06:32",1
"18/07/16","14:20",0.0,37.1,47.1,1007.6,227.7,1.2,3.2,227.2,0.52,24.0,30.7,"14:13:20",1
"18/07/16","14:30",0.0,37.3,47.6,1007.1,217.8,1.1,2.6,208.4,0.50,24.3,30.9,"14:27:28",1
"18/07/16","14:40",0.0,37.5,45.3,1007.1,215.7,0.7,2.2,212.1,0.48,23.7,30.9,"14:30:24",1
"18/07/16","14:50",0.0,36.1,50.8,1007.1,188.1,0.7,1.9,225.2,0.22,24.3,31.0,"14:45:28",1
"18/07/16","15:00",0.0,37.1,51.1,1006.9,283.7,0.6,1.8,313.5,0.34,25.3,30.8,"14:55:12",1
"18/07/16","15:10",0.0,37.2,47.2,1006.9,233.2,0.8,2.1,214.6,0.42,24.1,31.0,"15:08:00",1
"18/07/16","15:20",0.0,37.5,48.5,1007.1,256.4,0.7,2.8,313.9,0.41,24.8,30.9,"15:12:56",1
"18/07/16","15:30",0.0,37.5,50.5,1006.7,316.6,1.2,3.6,333.6,0.40,25.5,30.8,"15:25:36",1
"18/07/16","15:40",0.0,37.4,46.9,1006.9,251.0,1.1,3.6,228.0,0.40,24.2,31.0,"15:36:08",1
"18/07/16","15:50",0.0,37.5,47.5,1006.4,248.6,1.6,3.4,197.2,0.41,24.5,31.0,"15:43:52",1
"18/07/16","16:00",0.0,37.3,49.2,1006.7,216.8,1.5,3.1,228.6,0.40,24.9,31.2,"15:57:36",1
"18/07/16","16:10",0.0,37.0,50.1,1006.4,225.5,1.5,3.3,220.1,0.35,24.9,31.0,"16:02:48",1
"18/07/16","16:20",0.0,36.9,51.8,1006.0,235.9,1.6,3.3,226.3,0.32,25.4,31.0,"16:15:52",1
"18/07/16","16:30",0.0,37.0,54.0,1006.2,242.4,1.7,3.2,203.6,0.29,26.2,31.1,"16:22:40",1
"18/07/16","16:40",0.0,35.5,58.4,1005.7,56.7,1.5,3.7,221.2,0.10,26.1,31.0,"16:31:28",1
"18/07/16","16:50",0.0,35.3,59.3,1005.5,87.2,1.0,3.2,113.0,0.07,26.2,31.0,"16:47:20",1
"18/07/16","17:00",0.0,35.0,60.0,1005.2,57.1,1.1,2.5,94.0,0.03,26.1,30.9,"16:54:48",1
"18/07/16","17:10",0.0,34.7,60.6,1004.5,37.9,0.7,2.5,0.4,0.03,26.0,30.8,"17:05:36",1
"18/07/16","17:20",0.0,34.8,62.7,1004.5,358.5,1.0,2.1,333.9,0.04,26.7,30.8,"17:18:16",1
"18/07/16","17:30",0.0,34.5,63.4,1004.8,346.7,0.7,1.7,325.6,0.04,26.6,30.4,"17:20:56",1
"18/07/16","17:40",0.0,34.3,64.4,1004.1,350.3,0.8,2.0,338.7,0.02,26.7,30.6,"17:36:32",1
"18/07/16","17:50",0.0,34.1,65.9,1004.3,23.4,0.5,1.4,39.3,0.03,26.9,30.3,"17:42:00",1
"18/07/16","18:00",0.0,34.0,67.6,1004.1,61.9,0.2,1.1,88.3,0.04,27.2,30.5,"17:53:04",1
"18/07/16","18:10",0.0,33.7,67.4,1004.1,46.0,0.3,1.1,81.5,0.03,26.9,30.3,"18:04:56",1
"18/07/16","18:20",0.0,33.6,69.5,1003.8,350.3,0.6,1.3,16.5,0.01,27.3,30.5,"18:13:20",1
"18/07/16","18:30",0.0,33.0,71.3,1003.8,346.6,0.5,1.0,345.6,0.01,27.1,30.1,"18:20:32",1
"18/07/16","18:40",0.0,33.0,71.4,1003.8,18.0,0.3,1.7,343.0,0.01,27.2,30.2,"18:36:16",1
"18/07/16","18:50",0.0,32.8,72.2,1003.8,10.7,0.3,0.8,350.8,0.00,27.2,29.9,"18:42:56",1
"18/07/16","19:00",0.0,32.5,74.3,1004.1,347.9,0.6,1.4,346.7,0.00,27.4,29.8,"18:56:32",1
"18/07/16","19:10",0.0,32.2,74.8,1003.6,355.9,0.6,1.2,0.9,0.00,27.2,29.7,"19:02:32",1
"18/07/16","19:20",0.0,32.0,75.3,1004.1,347.9,0.8,2.4,342.0,0.00,27.1,29.7,"19:18:48",1
"18/07/16","19:30",0.0,31.9,75.5,1004.1,358.0,0.7,1.4,6.4,0.00,27.1,29.7,"19:25:04",1
"18/07/16","19:40",0.0,31.8,74.8,1004.1,319.1,0.5,1.2,14.3,0.00,26.8,29.6,"19:31:20",1
"18/07/16","19:50",0.0,31.6,73.5,1004.1,308.0,0.3,1.0,330.1,0.00,26.3,29.6,"19:42:48",1
"18/07/16","20:00",0.0,31.5,72.7,1004.3,88.1,0.2,1.0,337.2,0.00,26.0,29.4,"19:58:48",1
"18/07/16","20:10",0.0,31.3,72.5,1004.3,323.2,0.7,2.0,344.9,0.00,25.8,29.3,"20:07:08",1
"18/07/16","20:20",0.0,31.4,72.5,1004.3,264.2,0.2,1.0,328.6,0.00,25.9,29.3,"20:12:24",1
"18/07/16","20:30",0.0,31.3,72.1,1004.3,267.5,0.2,0.9,246.4,0.00,25.7,29.2,"20:29:28",1
"18/07/16","20:40",0.0,31.3,71.7,1004.3,296.8,0.6,1.6,329.9,0.00,25.6,29.2,"20:39:28",1
"18/07/16","20:50",0.0,31.3,71.2,1004.8,333.4,1.1,2.2,326.4,0.00,25.5,29.0,"20:48:08",1
"18/07/16","21:00",0.0,31.0,71.9,1004.3,344.7,0.7,1.7,328.8,0.00,25.4,28.9,"20:59:52",1
"18/07/16","21:10",0.0,30.7,73.4,1004.5,350.2,1.0,2.1,344.0,0.00,25.4,29.0,"21:09:12",1
"18/07/16","21:20",0.0,30.6,73.8,1004.5,339.7,1.0,2.1,336.2,0.00,25.4,28.7,"21:11:12",1
"18/07/16","21:30",0.0,30.4,74.4,1004.3,344.8,0.8,1.4,334.1,0.00,25.4,28.7,"21:22:00",1
"18/07/16","21:40",0.0,30.0,75.9,1004.5,320.5,0.3,0.9,335.9,0.00,25.3,28.8,"21:32:16",1
"18/07/16","21:50",0.0,29.8,76.5,1004.5,288.2,0.2,1.2,0.3,0.00,25.3,28.5,"21:49:44",1
"18/07/16","22:00",0.0,29.8,77.3,1004.5,353.0,0.7,1.3,343.0,0.00,25.4,28.5,"21:52:00",1
"18/07/16","22:10",0.0,29.6,78.2,1004.8,350.9,0.5,1.1,7.5,0.00,25.4,28.3,"22:00:56",1
"18/07/16","22:20",0.0,29.2,79.3,1005.0,310.3,0.3,0.9,311.1,0.00,25.3,28.2,"22:17:12",1
"18/07/16","22:30",0.0,28.9,80.5,1005.2,327.7,0.6,1.1,344.9,0.00,25.2,28.6,"22:24:48",1
"18/07/16","22:40",0.0,28.7,80.9,1005.0,333.0,0.5,0.9,341.2,0.00,25.1,28.3,"22:37:12",1
"18/07/16","22:50",0.0,28.4,81.9,1005.0,301.3,0.3,0.9,336.6,0.00,25.0,28.1,"22:40:16",1
"18/07/16","23:00",0.0,28.3,82.6,1005.2,289.9,0.5,0.8,280.4,0.00,25.1,28.0,"22:53:04",1
"18/07/16","23:10",0.0,28.2,82.2,1004.8,273.5,0.5,0.9,234.9,0.00,24.9,28.0,"23:06:24",1
"18/07/16","23:20",0.0,28.1,82.5,1005.2,283.4,0.5,1.0,277.1,0.00,24.9,28.0,"23:16:08",1
"18/07/16","23:30",0.0,28.0,82.8,1005.5,309.6,0.8,1.3,326.0,0.00,24.8,28.1,"23:22:40",1
"18/07/16","23:40",0.0,27.8,83.6,1005.5,301.3,0.6,1.2,319.2,0.00,24.8,27.9,"23:33:52",1
"18/07/16","23:50",0.0,27.7,83.8,1005.5,286.5,0.5,0.8,317.4,0.00,24.7,27.7,"23:44:16",1
"18/07/16","24:00",0.0,27.6,84.7,1005.0,300.4,0.5,1.0,327.5,0.00,24.8,27.7,"23:56:56",1
